Theta_e
322 321 320 320 320 320 320 319 321 319 316 316 317 317 317 318 318 319 321 320 319 317 314 312 310 307 306 305 305 301 300 299 299 298 298 297 296 296 295 294 294 294 294 294
323 321 320 320 319 318 319 319 318 318 318 318 318 317 317 317 318 318 319 319 318 315 313 311 309 307 306 306 304 301 300 299 298 298 297 296 295 295 295 294 294 294 294 294
320 319 320 322 320 319 319 319 319 319 319 319 319 317 316 317 317 317 317 318 316 315 313 311 309 306 306 304 302 300 299 298 298 297 296 295 294 294 294 294 294 294 293 293
321 317 323 317 317 317 318 318 318 318 318 317 317 317 317 317 317 317 316 316 315 314 313 312 309 306 304 303 301 299 298 297 297 295 294 293 293 294 294 294 294 293 293 292
327 319 317 316 315 315 316 316 316 317 316 316 317 317 317 317 316 316 315 315 315 314 313 312 308 305 303 302 299 298 298 296 294 293 293 293 293 293 294 294 293 293 292 292
318 327 327 319 315 316 317 316 315 315 316 315 317 319 316 317 315 315 315 315 314 314 313 310 306 303 301 299 299 297 296 294 293 292 292 292 293 293 293 293 293 292 291 290
321 325 321 316 314 315 316 318 316 316 315 316 316 315 317 316 314 315 315 315 314 313 311 308 303 299 300 298 297 294 294 291 292 292 292 293 292 292 293 293 293 292 291 290
323 323 323 313 315 318 320 316 316 315 315 317 316 316 316 315 313 314 314 314 312 309 305 300 299 299 297 295 294 294 291 291 292 292 292 292 292 292 293 293 292 292 291 290
319 320 316 314 315 315 315 315 315 315 315 315 315 315 315 315 313 312 313 309 305 301 298 298 300 298 294 294 294 291 290 291 292 292 292 292 292 292 292 292 292 291 291 290
317 316 315 314 314 314 314 314 314 314 315 315 315 316 315 315 311 308 306 301 299 298 298 299 297 295 292 292 291 290 290 290 290 291 291 290 290 291 292 292 291 291 290 290
317 316 315 315 315 315 315 315 316 316 316 316 314 315 315 313 307 304 299 297 298 299 298 295 293 292 292 291 290 290 290 290 290 290 290 291 290 290 290 290 291 291 290 290
318 316 316 315 315 315 315 316 314 314 314 310 310 311 310 303 300 299 297 298 298 296 294 293 293 293 291 290 290 290 290 289 290 291 291 291 290 290 289 289 289 289 289 289
316 315 315 315 314 312 310 309 307 306 305 303 302 302 300 299 298 298 298 297 296 294 293 293 293 291 290 290 290 290 290 290 290 291 291 291 290 290 289 289 289 289 288 288
314 315 316 311 310 306 305 304 303 303 303 301 301 300 299 299 298 298 297 295 294 293 293 291 290 290 290 290 290 290 290 291 291 291 291 290 290 290 289 288 288 288 288 288
310 310 308 306 304 303 302 302 301 299 298 297 298 297 297 297 296 296 295 294 293 292 290 290 290 290 291 291 290 290 291 291 291 290 289 288 288 288 288 288 288 288 287 287
307 306 305 303 301 299 300 298 298 299 298 298 297 297 297 296 296 294 293 292 291 291 291 291 291 290 290 290 291 292 292 291 291 290 289 289 288 288 288 288 288 288 288 288
305 303 302 300 299 299 300 299 299 299 299 298 297 294 291 291 290 292 291 291 291 291 291 291 291 290 290 290 292 292 292 292 291 290 290 289 289 288 287 287 287 287 287 288
304 302 300 300 300 299 299 298 296 295 292 291 291 291 291 291 291 291 291 291 291 291 291 291 291 291 291 292 292 292 292 292 291 290 290 289 288 288 288 287 287 287 287 287
300 300 299 299 299 298 295 293 292 291 291 291 291 291 291 291 291 291 291 291 290 291 293 292 291 291 291 290 290 291 291 291 290 290 289 288 287 287 288 287 287 287 287 287
299 297 296 294 294 292 291 292 292 292 292 291 291 291 290 290 290 290 290 290 291 292 291 291 290 290 290 290 290 290 290 290 289 289 288 287 287 287 287 287 287 287 286 287
295 293 292 292 292 292 292 292 291 291 291 291 290 289 288 288 287 286 286 286 287 288 287 286 285 285 286 287 288 289 290 289 289 288 288 287 286 286 287 287 287 287 287 287
296 293 292 292 292 292 291 291 291 290 289 288 287 286 285 286 285 286 285 286 286 285 283 283 284 284 283 284 285 287 287 288 288 288 287 286 285 285 285 286 286 286 286 286
294 293 293 293 293 292 291 291 290 289 287 286 285 284 284 284 285 284 284 284 282 281 281 281 282 282 283 284 284 285 286 286 287 287 285 284 284 283 283 283 283 283 283 283
293 293 293 293 292 291 289 289 287 286 285 284 283 282 281 282 281 282 281 280 279 279 279 279 280 281 281 281 282 283 283 284 284 283 282 282 281 280 279 280 281 281 281 281
293 293 292 290 288 287 286 286 284 284 283 282 282 281 280 280 279 279 278 277 277 277 277 277 278 278 278 278 278 279 279 279 279 279 279 278 279 279 277 278 279 279 279 279
290 289 288 288 286 285 284 283 282 282 280 280 279 279 278 278 277 276 275 275 275 274 274 275 276 276 277 276 276 276 276 276 277 277 276 276 277 276 276 276 277 277 277 277
289 286 285 284 283 282 281 280 279 279 279 278 277 278 277 276 275 274 274 274 273 273 273 273 272 272 273 274 273 273 274 274 274 274 274 274 274 273 273 274 274 274 274 275
Wind_Speed
14 6 6 8 10 13 17 16 13 12 13 8 7 7 8 9 12 17 21 24 26 26 26 26 26 25 21 18 13 15 13 12 11 12 12 13 14 15 15 15 15 14 14 13
5 8 8 11 12 14 14 17 17 17 16 15 12 6 9 8 11 15 19 22 25 26 26 27 27 25 22 16 16 14 13 12 12 12 13 14 14 15 16 15 15 15 14 14
4 3 4 6 16 16 16 16 14 16 15 9 3 5 10 10 10 14 17 20 24 26 26 26 25 24 21 16 16 14 12 12 12 13 14 13 14 16 16 16 16 15 15 14
1 2 1 4 0 5 10 15 17 15 15 13 7 9 7 8 11 14 15 18 21 22 23 23 22 22 18 16 15 12 11 11 12 13 14 14 15 16 17 16 16 15 14 13
3 6 9 10 6 2 4 7 6 8 9 8 3 6 15 14 11 10 13 15 17 19 20 21 22 21 18 16 15 11 12 11 12 13 14 15 16 16 16 16 16 15 13 11
3 3 4 3 4 1 1 6 8 7 5 1 3 4 6 2 5 8 11 14 16 17 18 19 20 18 17 16 10 9 9 11 13 12 14 16 16 16 16 15 15 13 13 11
6 3 5 2 2 2 4 3 6 7 7 5 6 7 7 8 9 11 12 13 14 16 17 16 16 15 12 6 5 9 15 13 11 12 15 15 15 15 15 14 13 13 14 12
3 3 6 6 6 1 4 5 5 7 7 7 10 13 13 12 11 10 10 9 9 10 10 12 9 5 3 4 6 15 14 13 12 13 14 14 15 14 13 13 14 13 14 14
6 2 4 6 4 3 6 8 11 11 12 12 14 16 16 13 11 8 6 7 7 12 11 10 11 6 5 5 11 11 14 14 12 12 13 14 15 14 13 14 15 13 13 14
1 3 5 7 10 8 7 8 9 10 11 12 13 14 14 11 6 3 6 7 9 11 12 10 6 5 2 10 14 15 14 16 14 14 16 19 12 12 14 15 14 14 14 13
6 12 8 7 4 4 6 7 8 8 9 8 10 12 11 3 2 6 11 9 10 9 7 6 3 5 10 14 14 15 16 15 14 16 15 14 14 14 15 15 15 15 15 15
3 8 5 6 5 7 7 5 4 5 5 7 8 5 3 9 10 10 11 12 10 10 6 3 5 9 14 15 15 15 14 14 14 14 14 15 15 16 17 16 16 21 23 24
6 10 9 7 3 6 5 6 8 9 9 10 13 11 12 11 9 13 12 9 5 4 2 5 10 16 16 15 14 14 15 16 15 14 15 16 19 20 24 20 19 19 21 23
6 7 4 8 6 7 10 11 11 11 11 9 8 8 12 12 9 6 4 2 1 4 8 13 16 17 16 15 15 16 17 15 17 15 18 19 18 22 25 25 23 24 22 23
6 8 9 9 9 10 9 7 12 14 14 15 13 12 10 7 4 1 2 5 10 13 14 15 17 18 15 17 18 17 17 17 19 20 19 23 23 23 22 24 24 25 24 22
5 7 8 10 11 11 12 13 14 13 11 10 8 6 4 3 5 7 9 12 15 15 15 17 21 22 21 22 20 18 18 21 24 22 21 22 24 25 24 24 26 26 25 23
8 9 10 12 14 14 14 12 11 9 6 6 5 6 8 9 11 10 11 14 17 18 20 22 22 20 22 24 22 21 22 24 25 27 29 28 29 29 28 27 27 27 26 26
11 13 14 15 14 13 10 8 5 5 6 7 8 9 9 9 10 11 12 14 16 18 19 19 20 22 23 24 25 25 27 28 28 29 28 28 29 30 29 28 28 27 27 26
17 18 15 12 10 8 6 4 5 5 6 7 7 8 9 10 12 14 16 19 21 23 18 24 26 27 28 28 28 29 28 31 29 26 27 27 28 30 31 29 27 25 25 25
14 12 11 10 7 5 5 5 5 5 6 7 9 10 13 15 18 20 22 23 19 18 24 26 29 28 26 27 28 29 29 31 29 25 26 27 29 30 29 27 26 24 23 23
10 9 7 6 5 5 5 5 5 5 7 10 14 17 19 20 22 23 23 22 19 22 26 29 31 31 30 28 29 30 32 31 30 31 28 24 23 25 27 25 23 21 20 19
7 7 6 5 4 3 3 3 4 6 9 13 15 17 19 19 22 21 20 20 22 28 33 31 31 30 31 30 30 32 34 34 33 30 22 20 22 22 23 15 15 14 17 18
6 6 4 4 2 0 1 3 6 10 13 15 17 18 19 17 16 21 23 21 26 27 30 30 31 32 31 30 31 30 29 28 28 22 20 20 22 21 19 21 27 28 25 23
7 5 4 3 2 2 3 7 10 13 14 14 15 18 19 19 19 16 20 23 24 28 25 26 31 30 28 25 24 24 21 16 14 16 15 16 16 16 16 17 19 20 20 20
6 4 3 2 1 2 5 9 9 10 13 13 14 14 17 15 17 19 19 20 22 23 22 24 25 24 23 21 20 18 16 16 15 13 14 13 15 16 16 17 19 21 21 20
5 4 2 3 2 4 8 10 11 11 14 13 14 14 14 14 15 17 18 18 19 19 20 21 23 24 22 21 20 19 17 16 17 16 16 16 16 16 17 19 19 20 21 20
6 4 2 1 5 8 11 12 12 13 12 13 13 13 14 15 16 16 17 19 19 19 20 20 20 21 22 20 19 19 18 18 19 20 18 18 18 18 19 19 20 20 20 21
Wind_Direction
262 291 291 282 259 224 234 237 252 263 269 284 313 296 252 230 233 229 222 219 218 216 214 213 209 208 205 207 215 205 212 229 246 258 270 279 280 285 288 295 302 301 300 293
254 244 264 265 256 253 243 249 254 260 275 295 327 275 267 250 239 233 225 221 219 219 219 217 214 212 210 217 209 211 219 234 249 262 273 277 280 285 289 294 300 300 298 293
246 359 296 288 239 248 248 248 251 263 272 342 319 268 273 259 240 239 234 226 222 222 221 220 219 216 215 213 212 215 225 243 260 272 277 281 286 287 285 289 298 297 297 294
246 228 294 262 277 291 269 264 256 261 271 286 287 317 292 271 258 240 238 233 229 225 224 223 221 213 216 217 214 223 237 261 270 281 284 286 288 289 288 288 293 292 288 287
183 223 289 286 192 243 238 286 328 323 308 304 41 290 268 235 234 243 248 243 236 229 225 221 220 215 214 209 207 215 260 263 279 286 293 293 292 291 287 288 291 288 285 280
168 221 237 74 73 92 212 258 49 31 11 19 192 279 333 84 241 255 252 240 230 223 220 218 214 213 204 200 223 225 243 274 283 294 293 292 292 290 289 285 283 281 275 270
206 252 283 48 170 210 238 40 14 353 321 272 245 311 352 333 306 274 259 240 224 217 218 210 204 190 192 190 234 269 283 287 294 295 290 288 290 294 291 283 277 273 268 264
180 209 261 140 140 229 35 317 336 324 305 289 291 293 296 305 306 287 260 234 213 196 186 179 178 178 149 153 255 281 288 294 296 292 289 291 293 292 283 280 276 270 263 267
213 229 110 184 310 298 305 301 305 304 297 296 289 294 299 294 297 293 248 201 183 170 154 158 187 150 142 266 275 287 293 295 296 295 294 293 289 287 281 278 274 268 262 265
302 164 247 261 280 284 288 284 298 305 305 305 302 304 302 293 270 227 175 164 157 150 159 169 124 44 303 287 294 291 296 298 300 297 294 304 298 285 276 273 271 266 261 252
246 273 272 274 261 314 320 313 311 314 317 318 321 311 307 285 195 151 144 122 138 142 122 82 39 314 306 296 294 299 300 300 293 294 301 304 295 294 280 273 262 268 255 252
250 19 328 332 14 328 317 341 348 354 2 12 3 6 80 105 116 125 136 146 141 105 67 13 316 295 291 290 295 297 298 301 298 289 294 291 291 288 295 291 279 259 253 254
295 314 305 299 47 26 66 61 64 71 72 73 68 86 118 132 151 139 132 119 86 69 33 284 287 283 286 288 293 297 298 298 300 295 292 287 285 293 300 299 288 278 270 267
351 324 217 39 79 73 86 84 85 88 92 84 81 95 115 116 122 123 110 112 224 262 266 271 287 292 290 292 295 297 298 301 302 296 290 290 289 287 290 293 289 286 284 276
37 58 91 101 95 91 98 97 88 84 85 88 90 96 96 91 96 110 278 277 266 276 296 298 298 294 287 286 291 287 285 286 289 291 291 292 299 296 283 286 286 288 283 278
90 89 98 102 102 101 101 94 92 94 92 89 79 73 42 356 322 308 303 300 302 301 298 297 300 302 292 286 282 278 282 287 286 293 293 300 306 301 296 286 286 286 279 278
122 111 114 107 111 108 101 97 90 86 66 46 12 342 331 324 320 317 311 301 307 305 304 304 306 300 291 286 278 276 281 280 279 286 291 298 299 299 297 290 287 287 285 279
106 118 120 114 118 115 107 85 75 38 16 358 351 349 347 344 339 331 323 320 316 316 317 314 313 311 305 298 287 276 273 274 275 283 288 293 293 295 291 288 288 286 287 284
108 111 113 108 106 123 109 71 38 24 21 16 9 5 357 349 338 330 324 321 322 323 319 306 304 305 304 302 297 287 279 281 285 285 291 296 294 295 288 287 294 289 288 285
116 115 112 111 109 95 81 68 57 40 26 15 4 352 343 334 327 321 318 318 329 323 307 306 303 310 310 307 306 296 283 282 283 285 287 290 298 295 292 287 290 288 290 286
123 121 113 111 105 94 87 74 55 35 14 354 340 332 326 322 320 321 322 323 323 305 301 301 307 309 304 297 293 290 284 273 277 287 281 289 296 302 297 288 290 288 290 290
130 135 131 124 112 93 69 38 17 356 338 335 334 333 331 333 329 330 332 329 314 309 318 317 317 314 312 311 304 294 290 291 290 281 276 282 290 304 297 308 292 294 296 296
146 151 156 170 191 226 320 309 316 323 335 338 336 333 333 331 329 325 325 318 315 316 316 320 311 307 308 309 309 306 300 298 287 256 267 279 293 298 296 294 291 292 288 279
172 192 204 202 226 264 291 312 330 329 332 340 330 329 330 332 326 327 315 322 318 320 326 316 317 320 319 315 305 302 296 283 270 276 286 295 298 301 300 301 298 296 293 290
195 197 199 194 66 352 326 325 340 335 330 333 332 333 328 332 327 324 326 330 333 335 337 336 339 343 341 337 331 326 321 311 306 305 304 308 306 304 307 306 303 300 299 297
147 141 186 213 275 315 322 327 331 330 328 331 331 333 335 331 329 329 329 333 335 336 339 339 339 339 340 339 337 333 331 325 320 319 318 314 312 313 310 308 307 305 302 302
169 145 109 16 328 326 323 327 330 330 331 322 332 332 332 329 331 333 330 330 332 334 335 335 336 334 333 335 334 332 329 326 323 322 322 319 320 318 315 315 313 312 309 307